Regional Weather Roundup
Issued by NWS

Home | Current Version | Previous Version | Text Only | Print | Product List | Glossary On
Versions: 1 2 3 4 5 6 7 8 9 10 11 12 13 14 15 16 17 18 19 20 21 22 23 24 25 26 27 28 29 30 31 32 33 34 35 36 37 38 39 40 41 42 43 44 45 46 47 48 49 50
317
ASUS44 KLIX 192105
RWRLA
LOUISIANA WEATHER ROUNDUP
NATIONAL WEATHER SERVICE NEW ORLEANS LA
400 PM CDT SAT APR 19 2014

NOTE: "FAIR" INDICATES FEW OR NO CLOUDS BELOW 12,000 FEET WITH NO
      SIGNIFICANT WEATHER AND/OR OBSTRUCTIONS TO VISIBILITY.
      SKY/WX - SKY CONDITION AND SIGNIFICANT WEATHER.
      TMP - AIR TEMPERATURE.    DP   - DEWPOINT TEMPERATURE.
      RH  - RELATIVE HUMIDITY.  PRES - PRESSURE.
      HX  - HEAT INDEX.         WCI  - WIND CHILL INDEX.

*  THESE STATIONS ARE NOT NWS OR FAA STATIONS AND ARE NOT UNDER
   NWS QUALITY CONTROL.

LAZ040-048-061>063-065-066-069-192200-
SOUTHEAST LOUISIANA

CITY           SKY/WX    TMP DP  RH WIND       PRES   REMARKS
N.O. AUDUBON   NOT AVBL
N.O. INTL ARPT MOSUNNY   76  53  44 NW12      30.09F
N.O. LAKEFRONT SUNNY     71  58  63 W10       30.09F
N.O. DOWNTOWN* FAIR      77  48  36 NW7       30.10F
SLIDELL        SUNNY     79  50  36 N12       30.07F
BATON ROUGE    SUNNY     81  52  36 VRB5      30.10F
BOOTHVILLE     SUNNY     71  53  52 NW12      30.09F
BELLE CHASSE   MOSUNNY   77  48  35 N6G17     30.08F
BOGALUSA*        N/A     80  49  34 N13       30.09F
GALLIANO*      CLEAR     76  54  45 NW9       30.10F
NEW ROADS*     FAIR      77  51  40 NW6       30.11F
GONZALES*      FAIR      78  51  39 N6G21     30.09F
HAMMOND*       SUNNY     82  46  28 NW3       30.10F
HOUMA*         SUNNY     79  48  34 N12       30.09F
PORT FOURCHON* CLEAR     72  54  53 VRB3      30.12F

$$

LAZ041-044-053-054-192200-
SOUTHWEST LOUISIANA

CITY           SKY/WX    TMP DP  RH WIND       PRES   REMARKS
LAKE CHARLES   PTSUNNY   79  53  40 CALM      30.12F
LAFAYETTE      SUNNY     78  51  38 VRB5      30.11F
PATTERSON      SUNNY     79  54  41 N9        30.14F
SALT POINT       N/A     76  61  59 VRB6      30.10F
NEW IBERIA     SUNNY     79  51  37 CALM      30.11F
CHENAULT AIRPK NOT AVBL

$$

LAZ027-028-192200-
CENTRAL LOUISIANA

CITY           SKY/WX    TMP DP  RH WIND       PRES   REMARKS
FORT POLK      PTSUNNY   76  53  44 CALM      30.12F
ALEXANDRIA INT PTSUNNY   78  54  43 CALM      30.11F
ALEXANDRIA     SUNNY     80  47  31 VRB6      30.12F

$$

LAZ001-002-192200-
NORTHWEST LOUISIANA

CITY           SKY/WX    TMP DP  RH WIND       PRES   REMARKS
SHREVEPORT     PTSUNNY   79  51  37 CALM      30.13F
BARKSDALE AFB  MOSUNNY   76  52  43 VRB1      30.13F
DTN SHREVEPORT PTSUNNY   77  53  43 E5        30.13F

$$

LAZ014-016-192200-
NORTHEAST LOUISIANA

CITY           SKY/WX    TMP DP  RH WIND       PRES   REMARKS
MONROE         SUNNY     77  52  41 SE3       30.14F
TALLULAH       SUNNY     78  51  38 N9        30.13F

$$




USA.gov is the U.S. government's official web portal to all federal, state and local government web resources and services.